This demonstration page uses our WeatherBlox Daily Observations layout. Learn more.

Left ArrowRight Arrow

34.02893, -84.19858

Hourly Observations for February 12, 2020

Temp ( °F °C ) Dew Point ( °F °C ) Humidity (%) Winds ( mph kmh ) Pressure ( in mb ) Visibility ( mi km ) Precip ( " mm )
12:53 am 00:53 Cloudy 55 12.8 54 12.2 96 96 NNW 6 9 30.05 1018 10 16 0.00 0.00
1:30 am 01:30 Cloudy 55 12.8 54 12.2 96 96 NW 8 13 30.07 1018 9 14 0.00 0.00
1:53 am 01:53 Cloudy with Mist and Fog 54 12.2 54 12.2 100 100 NW 8 13 30.07 1018 3 5 0.00 0.00
2:19 am 02:19 Cloudy with Mist and Fog 54 12.2 54 12.2 100 100 NNW 6 9 30.08 1019 3 4 0.00 0.00
2:33 am 02:33 Cloudy with Mist and Fog 53 11.7 53 11.7 100 100 NNW 9 15 30.08 1019 2 3 0.00 0.00
2:43 am 02:43 Cloudy with Mist and Fog 52 11.1 52 11.1 100 100 N 8 13 30.09 1019 2 3 0.00 0.00
2:53 am 02:53 Cloudy with Mist and Fog 52 11.1 52 11.1 100 100 N 6 9 30.07 1018 3 4 0.00 0.00
3:05 am 03:05 Cloudy with Mist and Fog 52 11.1 52 11.1 100 100 NNW 6 9 30.09 1019 3 5 0.00 0.00
3:14 am 03:14 Cloudy with Mist and Fog 52 11.1 52 11.1 100 100 W 7 11 30.09 1019 6 10 0.00 0.00
3:35 am 03:35 Cloudy 52 11.1 51 10.6 97 97 W 6 9 30.09 1019 10 16 0.00 0.00
3:53 am 03:53 Cloudy 51 10.6 50 10 96 96 WNW 3 6 30.07 1018 10 16 0.00 0.00
4:19 am 04:19 Cloudy 51 10.6 49 9.4 92 92 Calm 30.07 1018 10 16 0.00 0.00
4:53 am 04:53 Cloudy 51 10.6 50 10 96 96 W 3 6 30.05 1018 10 16 0.00 0.00
5:00 am 05:00 Cloudy 51 10.6 50 10 96 96 Calm 30.06 1018 10 16 0.00 0.00
5:09 am 05:09 Cloudy 51 10.6 50 10 96 96 WNW 3 6 30.07 1018 10 16 0.00 0.00
5:29 am 05:29 Cloudy 51 10.6 50 10 96 96 WSW 5 7 30.07 1018 10 16 0.00 0.00
5:53 am 05:53 Cloudy 51 10.6 49 9.4 92 92 WSW 5 7 30.06 1018 10 16 0.00 0.00
6:07 am 06:07 Cloudy 51 10.6 50 10 96 96 Calm 30.07 1018 10 16 0.00 0.00
6:53 am 06:53 Cloudy 51 10.6 49 9.4 92 92 Calm 30.05 1018 10 16 0.00 0.00
7:53 am 07:53 Cloudy 51 10.6 50 10 96 96 Calm 30.05 1018 9 14 0.00 0.00
8:04 am 08:04 Mostly Cloudy 51 10.6 50 10 96 96 Calm 30.07 1018 9 14 0.00 0.00
8:35 am 08:35 Cloudy 52 11.1 50 10 93 93 Calm 30.07 1018 9 14 0.00 0.00
8:53 am 08:53 Cloudy 53 11.7 50 10 89 89 Calm 30.06 1018 9 14 0.00 0.00
9:00 am 09:00 Cloudy 53 11.7 51 10.6 93 93 Calm 30.07 1018 9 14 0.00 0.00
9:53 am 09:53 Cloudy 54 12.2 51 10.6 90 90 Calm 30.07 1018 10 16 0.00 0.00
10:53 am 10:53 Cloudy 57 13.9 53 11.7 87 87 VRB 5 7 30.07 1018 10 16 0.00 0.00
11:53 am 11:53 Cloudy 61 16.1 56 13.3 84 84 SE 7 11 30.05 1018 10 16 0.00 0.00
12:53 pm 12:53 Cloudy 63 17.2 59 15 87 87 S 8 13 30.03 1017 10 16 0.00 0.00
1:51 pm 13:51 Cloudy 66 19 61 16 83 83 S 8 13 29.98 1015 10 16 0.00 0.00
1:53 pm 13:53 Cloudy 67 19.4 61 16.1 81 81 SSE 8 13 29.99 1016 10 16 0.00 0.00
2:53 pm 14:53 Cloudy 69 20.6 62 16.7 78 78 SSE 8 13 29.95 1014 10 16 0.00 0.00
3:53 pm 15:53 Cloudy 70 21.1 62 16.7 76 76 SSW 13 20 29.93 1014 10 16 0.00 0.00
4:53 pm 16:53 Mostly Cloudy 70 21.1 61 16.1 73 73 S 10 17 29.91 1013 10 16 0.00 0.00
5:53 pm 17:53 Sunny 69 20.6 61 16.1 76 76 S 8 13 29.91 1013 10 16 0.00 0.00
6:53 pm 18:53 Cloudy 68 20 62 16.7 81 81 SSE 7 11 29.91 1013 10 16 0.00 0.00
7:53 pm 19:53 Mostly Cloudy 68 20 62 16.7 81 81 VRB 6 9 29.91 1013 10 16 0.00 0.00
8:53 pm 20:53 Clear 66 18.9 62 16.7 87 87 SSE 8 13 29.89 1012 10 16 0.00 0.00
9:53 pm 21:53 Clear 66 18.9 62 16.7 87 87 S 8 13 29.87 1012 10 16 0.00 0.00
10:53 pm 22:53 Cloudy 66 18.9 62 16.7 87 87 S 9 15 29.87 1011 10 16 0.00 0.00
11:53 pm 23:53 Cloudy 67 19.4 62 16.7 84 84 S 13 20 29.84 1011 10 16 0.00 0.00

Powered by AerisWeather